Location: Krasnoyarskiy Pitomnik
(51.1333°N, 71.6167°E)
Time: 22:52:13
(UTC+00:00)

deb Explorer IX - Pass Details

Date: 20 April 2024
Orbit: 513 x 891 km, 38.7° (Epoch: 21 May)

Event Time Altitude Azimuth Distance (km) Brightness Sun altitude
Rises 08:48:09 0° 249° (WSW) 3,496 ? 46.1°
Reaches altitude 10° 08:51:07 10° 237° (WSW) 2,577 ? 45.8°
Maximum altitude 08:56:05 25° 184° (S) 1,724 ? 45.3°
Drops below altitude 10° 09:01:01 10° 131° (SE) 2,552 ? 44.8°
Sets 09:03:57 0° 119° (ESE) 3,455 ? 44.6°
